Tracking 28799 objects as of 18-Apr-2024
HD Live streaming from Space Station
objects crossing your sky now

DELTA 1 DEB

Track DELTA 1 DEB now!
10-day predictions


NORAD ID: 42586
Int'l Code: 1973-086JA
Perigee: 1,508.2 km
Apogee: 1,558.7 km
Inclination: 102.4 °
Period: 116.6 minutes
Semi major axis: 7904 km
RCS: Unknown
Launch date: November 6, 1973
Source: United States (US)
Launch site: AIR FORCE WESTERN TEST RANGE (AFWTR)

Note: This is SATELLITE DEBRIS
Your satellite tracking list
Your tracking list is empty




NASA's NSSDC Master Catalog

Two Line Element Set (TLE):
1 42586U 73086JA  24106.75765144  .00000034  00000-0  64004-3 0  9995
2 42586 102.4072 111.6774 0031949 151.6266  24.6133 12.35368840469012
Source of the keplerian elements: AFSPC